Torna al catalogo

STARLINK-3110

AttivoComunicazioniVLEO
NORAD 49420·PAYLOAD·🇺🇸 United States

Lanciato Nov 13, 2021 da Cape Canaveral Space Force Station

Loading…

Prossimi Passaggi (prossime 24 ore)

TLE

AggiornatoSource: CelesTrak SupGP

Epoca: Sep 15, 2026, 01:55 UTC

1 49420C 21104N   26258.08034722 -.00005481  00000+0 -16197-3 0  2580
2 49420  53.1578  84.9954 0001154  83.2951 253.6698 15.34387379    18

Traccia STARLINK-3110 in tempo reale con AllMySat

Download on the App Store